| time (UTC) | temp F | wind direction | speed MPH | gust MPH | rain 1hr in | rain 24hr in | rain mn in | humidity % | barometer mb |
| 20260905230028 | 94 | 303 | 5.0 | 12.0 | 0.00 | 0.00 | 0.00 | 27 | 1010.1 |
| 20260905224527 | 93 | 222 | 5.0 | 12.0 | 0.00 | 0.00 | 0.00 | 26 | 1010.2 |
| 20260905223026 | 94 | 234 | 3.0 | 9.0 | 0.00 | 0.00 | 0.00 | 24 | 1010.3 |
| 20260905221524 | 95 | 242 | 4.0 | 9.0 | 0.00 | 0.00 | 0.00 | 23 | 1010.4 |
| 20260905220022 | 95 | 284 | 3.0 | 10.0 | 0.00 | 0.00 | 0.00 | 24 | 1010.6 |
| 20260905214519 | 94 | 131 | 0.0 | 5.0 | 0.00 | 0.00 | 0.00 | 23 | 1010.8 |
| 20260905213018 | 94 | 277 | 2.0 | 7.0 | 0.00 | 0.00 | 0.00 | 22 | 1011.0 |
| 20260905211518 | 93 | 242 | 4.0 | 8.0 | 0.00 | 0.00 | 0.00 | 22 | 1011.1 |
| 20260905210016 | 94 | 160 | 2.0 | 8.0 | 0.00 | 0.00 | 0.00 | 22 | 1011.1 |
| 20260905204514 | 92 | 295 | 2.0 | 9.0 | 0.00 | 0.00 | 0.00 | 24 | 1011.2 |
| 20260905203013 | 92 | 245 | 2.0 | 7.0 | 0.00 | 0.00 | 0.00 | 23 | 1011.4 |
| 20260905201511 | 92 | 297 | 2.0 | 7.0 | 0.00 | 0.00 | 0.00 | 23 | 1011.7 |
| 20260905200006 | 92 | 270 | 1.0 | 8.0 | 0.00 | 0.00 | 0.00 | 23 | 1011.9 |
| 20260905194505 | 90 | 219 | 3.0 | 7.0 | 0.00 | 0.00 | 0.00 | 25 | 1012.0 |
| 20260905193008 | 90 | 248 | 0.0 | 6.0 | 0.00 | 0.00 | 0.00 | 26 | 1012.3 |
| 20260905191505 | 89 | 25 | 2.0 | 9.0 | 0.00 | 0.00 | 0.00 | 26 | 1012.5 |
| 20260905190002 | 91 | 276 | 1.0 | 7.0 | 0.00 | 0.00 | 0.00 | 26 | 1012.7 |
| 20260905184619 | 90 | 113 | 0.0 | 4.0 | 0.00 | 0.00 | 0.00 | 27 | 1012.8 |
| 20260905183101 | 87 | 302 | 2.0 | 6.0 | 0.00 | 0.00 | 0.00 | 29 | 1013.0 |
| 20260905181559 | 86 | 102 | 2.0 | 4.0 | 0.00 | 0.00 | 0.00 | 27 | 1013.0 |
| 20260905180055 | 86 | 245 | 1.0 | 2.0 | 0.00 | 0.00 | 0.00 | 28 | 1013.1 |
| 20260905174552 | 85 | 235 | 1.0 | 2.0 | 0.00 | 0.00 | 0.00 | 29 | 1013.1 |
| 20260905173047 | 83 | 208 | 1.0 | 3.0 | 0.00 | 0.00 | 0.00 | 32 | 1013.0 |
| 20260905171545 | 81 | 20 | 1.0 | 3.0 | 0.00 | 0.00 | 0.00 | 33 | 1013.1 |
| 20260905170046 | 80 | 297 | 0.0 | 2.0 | 0.00 | 0.00 | 0.00 | 34 | 1013.2 |
| 20260905164540 | 79 | 108 | 0.0 | 2.0 | 0.00 | 0.00 | 0.00 | 37 | 1013.2 |
| 20260905163036 | 77 | 125 | 0.0 | 2.0 | 0.00 | 0.00 | 0.00 | 39 | 1013.2 |
| 20260905161531 | 75 | 231 | 1.0 | 3.0 | 0.00 | 0.00 | 0.00 | 48 | 1013.1 |
| 20260905160030 | 73 | 127 | 1.0 | 3.0 | 0.00 | 0.00 | 0.00 | 51 | 1013.1 |
| 20260905154529 | 71 | 124 | 0.0 | 3.0 | 0.00 | 0.00 | 0.00 | 58 | 1013.1 |
| 20260905153022 | 70 | 139 | 1.0 | 3.0 | 0.00 | 0.00 | 0.00 | 66 | 1013.0 |
| 20260905151520 | 69 | 195 | 0.0 | 2.0 | 0.00 | 0.00 | 0.00 | 65 | 1012.9 |
| 20260905150015 | 67 | 204 | 0.0 | 3.0 | 0.00 | 0.00 | 0.00 | 66 | 1013.0 |
| 20260905144512 | 66 | 311 | 0.0 | 2.0 | 0.00 | 0.00 | 0.00 | 67 | 1012.7 |
| 20260905143011 | 65 | 310 | 0.0 | 0.0 | 0.00 | 0.00 | 0.00 | 71 | 1012.7 |
| 20260905141508 | 62 | 310 | 0.0 | 0.0 | 0.00 | 0.00 | 0.00 | 75 | 1012.6 |
| 20260905140006 | 59 | 311 | 0.0 | 0.0 | 0.00 | 0.00 | 0.00 | 86 | 1012.5 |
| 20260905134505 | 57 | 311 | 0.0 | 0.0 | 0.00 | 0.00 | 0.00 | 90 | 1012.3 |
| 20260905133002 | 58 | 310 | 0.0 | 0.0 | 0.00 | 0.00 | 0.00 | 90 | 1012.2 |
| 20260905131606 | 58 | 310 | 0.0 | 0.0 | 0.00 | 0.00 | 0.00 | 90 | 1012.2 |
| 20260905130159 | 58 | 310 | 0.0 | 0.0 | 0.00 | 0.00 | 0.00 | 90 | 1012.0 |
| 20260905124557 | 59 | 310 | 0.0 | 0.0 | 0.00 | 0.00 | 0.00 | 89 | 1012.0 |
| 20260905123058 | 59 | 310 | 0.0 | 0.0 | 0.00 | 0.00 | 0.00 | 88 | 1011.9 |
| 20260905121555 | 60 | 311 | 0.0 | 0.0 | 0.00 | 0.00 | 0.00 | 89 | 1011.9 |
| 20260905120051 | 61 | 310 | 0.0 | 0.0 | 0.00 | 0.00 | 0.00 | 88 | 1011.9 |
| 20260905114549 | 61 | 310 | 0.0 | 0.0 | 0.00 | 0.00 | 0.00 | 87 | 1012.0 |
| 20260905113051 | 61 | 311 | 0.0 | 0.0 | 0.00 | 0.00 | 0.00 | 88 | 1011.9 |
| 20260905111635 | 61 | 311 | 0.0 | 0.0 | 0.00 | 0.00 | 0.00 | 88 | 1011.9 |
| 20260905110047 | 61 | 310 | 0.0 | 0.0 | 0.00 | 0.00 | 0.00 | 86 | 1012.0 |
| 20260905104543 | 62 | 310 | 0.0 | 0.0 | 0.00 | 0.00 | 0.00 | 86 | 1012.1 |
| 20260905103043 | 62 | 311 | 0.0 | 0.0 | 0.00 | 0.00 | 0.00 | 85 | 1012.0 |
| 20260905101550 | 62 | 311 | 0.0 | 0.0 | 0.00 | 0.00 | 0.00 | 86 | 1012.0 |
| 20260905100047 | 62 | 311 | 0.0 | 0.0 | 0.00 | 0.00 | 0.00 | 85 | 1012.1 |
| 20260905094540 | 62 | 311 | 0.0 | 0.0 | 0.00 | 0.00 | 0.00 | 85 | 1012.0 |
| 20260905093038 | 62 | 310 | 0.0 | 0.0 | 0.00 | 0.00 | 0.00 | 83 | 1012.1 |
| 20260905091537 | 63 | 311 | 0.0 | 0.0 | 0.00 | 0.00 | 0.00 | 83 | 1012.1 |
| 20260905090035 | 63 | 311 | 0.0 | 0.0 | 0.00 | 0.00 | 0.00 | 83 | 1012.2 |
| 20260905084537 | 64 | 310 | 0.0 | 0.0 | 0.00 | 0.00 | 0.00 | 82 | 1012.2 |
| 20260905083032 | 64 | 310 | 0.0 | 0.0 | 0.00 | 0.00 | 0.00 | 81 | 1012.3 |
| 20260905081525 | 65 | 310 | 0.0 | 0.0 | 0.00 | 0.00 | 0.00 | 79 | 1012.5 |
| 20260905080036 | 65 | 311 | 0.0 | 0.0 | 0.00 | 0.00 | 0.00 | 80 | 1012.4 |
| 20260905074524 | 65 | 311 | 0.0 | 0.0 | 0.00 | 0.00 | 0.00 | 78 | 1012.5 |
| 20260905073022 | 65 | 311 | 0.0 | 0.0 | 0.00 | 0.00 | 0.00 | 79 | 1012.4 |
| 20260905071523 | 66 | 311 | 0.0 | 0.0 | 0.00 | 0.00 | 0.00 | 78 | 1012.4 |
| 20260905070018 | 66 | 311 | 0.0 | 0.0 | 0.00 | 0.00 | 0.00 | 76 | 1012.2 |
| 20260905064516 | 67 | 311 | 0.0 | 0.0 | 0.00 | 0.00 | 0.00 | 75 | 1012.1 |
| 20260905063014 | 68 | 29 | 0.0 | 3.0 | 0.00 | 0.00 | 0.00 | 75 | 1012.1 |
| 20260905061515 | 67 | 264 | 0.0 | 1.0 | 0.00 | 0.00 | 0.00 | 73 | 1012.0 |
| 20260905060024 | 67 | 264 | 0.0 | 0.0 | 0.00 | 0.00 | 0.00 | 74 | 1011.9 |
| 20260905054513 | 68 | 264 | 0.0 | 0.0 | 0.00 | 0.00 | 0.00 | 73 | 1011.9 |
| 20260905053012 | 69 | 264 | 0.0 | 0.0 | 0.00 | 0.00 | 0.00 | 70 | 1011.9 |
| 20260905051510 | 70 | 264 | 0.0 | 2.0 | 0.00 | 0.00 | 0.00 | 69 | 1011.9 |
| 20260905050015 | 70 | 284 | 1.0 | 3.0 | 0.00 | 0.00 | 0.00 | 69 | 1011.8 |
| 20260905044509 | 70 | 308 | 1.0 | 5.0 | 0.00 | 0.00 | 0.00 | 68 | 1011.7 |
| 20260905043009 | 71 | 303 | 0.0 | 2.0 | 0.00 | 0.00 | 0.00 | 66 | 1011.5 |
| 20260905041508 | 71 | 304 | 2.0 | 6.0 | 0.00 | 0.00 | 0.00 | 64 | 1011.3 |
| 20260905040008 | 72 | 304 | 1.0 | 4.0 | 0.00 | 0.00 | 0.00 | 62 | 1011.2 |
| 20260905034507 | 73 | 239 | 2.0 | 5.0 | 0.00 | 0.00 | 0.00 | 61 | 1011.1 |
| 20260905033013 | 73 | 302 | 2.0 | 6.0 | 0.00 | 0.00 | 0.00 | 58 | 1010.8 |
| 20260905031506 | 74 | 305 | 1.0 | 6.0 | 0.00 | 0.00 | 0.00 | 56 | 1010.6 |
| 20260905030006 | 74 | 217 | 2.0 | 6.0 | 0.00 | 0.00 | 0.00 | 54 | 1010.4 |
| 20260905024506 | 75 | 339 | 2.0 | 7.0 | 0.00 | 0.00 | 0.00 | 51 | 1010.2 |
| 20260905023005 | 76 | 297 | 4.0 | 9.0 | 0.00 | 0.00 | 0.00 | 49 | 1010.1 |
| 20260905021503 | 77 | 293 | 3.0 | 12.0 | 0.00 | 0.00 | 0.00 | 48 | 1010.1 |
| 20260905020003 | 77 | 257 | 3.0 | 12.0 | 0.00 | 0.00 | 0.00 | 47 | 1010.1 |
| 20260905014502 | 78 | 308 | 3.0 | 18.0 | 0.00 | 0.00 | 0.00 | 47 | 1010.0 |
| 20260905013003 | 79 | 269 | 4.0 | 15.0 | 0.00 | 0.00 | 0.00 | 46 | 1009.9 |
| 20260905011602 | 80 | 278 | 6.0 | 13.0 | 0.00 | 0.00 | 0.00 | 46 | 1010.0 |
| 20260905010109 | 82 | 267 | 3.0 | 11.0 | 0.00 | 0.00 | 0.00 | 46 | 1010.1 |
| 20260905004620 | 82 | 268 | 6.0 | 13.0 | 0.00 | 0.00 | 0.00 | 46 | 1010.0 |
| 20260905003058 | 83 | 291 | 4.0 | 11.0 | 0.00 | 0.00 | 0.00 | 47 | 1010.0 |
| 20260905001600 | 84 | 285 | 5.0 | 11.0 | 0.00 | 0.00 | 0.00 | 47 | 1009.9 |
| 20260905000109 | 85 | 235 | 6.0 | 13.0 | 0.00 | 0.00 | 0.00 | 46 | 1009.9 |
| 20260904234555 | 86 | 307 | 3.0 | 11.0 | 0.00 | 0.00 | 0.00 | 45 | 1009.9 |
| 20260904233054 | 86 | 275 | 4.0 | 11.0 | 0.00 | 0.00 | 0.00 | 44 | 1009.8 |
| 20260904231553 | 87 | 256 | 5.0 | 10.0 | 0.00 | 0.00 | 0.00 | 42 | 1009.8 |